Tracking 29059 objects as of 19-Jun-2024
HD Live streaming from Space Station
objects crossing your sky now

DELTA 1 DEB

Track DELTA 1 DEB now!
10-day predictions


NORAD ID: 7013
Int'l Code: 1973-086D
Perigee: 1,409.0 km
Apogee: 1,519.6 km
Inclination: 102.0 °
Period: 115.0 minutes
Semi major axis: 7835 km
RCS: 0.9452 m2 (medium)
Launch date: November 6, 1973
Source: United States (US)
Launch site: AIR FORCE WESTERN TEST RANGE (AFWTR)

Note: This is SATELLITE DEBRIS
Your satellite tracking list
Your tracking list is empty




NASA's NSSDC Master Catalog

Two Line Element Set (TLE):
1 07013U 73086D   24170.88236532  .00000018  00000-0  40455-3 0  9996
2 07013 101.9974 165.2233 0070557  48.4348  10.4477 12.51762244311261
Source of the keplerian elements: AFSPC